Weather History for KHPN - July, 2014

Change the Weather History Date:

Monday, July 28, 2014

  Actual Average (KLGA) Record (KLGA)
Temperature  
Mean Temperature 74 °F 78 °F  
Max Temperature 82 °F 86 °F 98 °F (1949)
Min Temperature 66 °F 70 °F 60 °F (1984)
Degree Days  
Heating Degree Days 0 0  
Month to date heating degree days 0  
Since 1 June heating degree days 16  
Since 1 July heating degree days 0  
Cooling Degree Days 8 13  
Month to date cooling degree days 349  
Year to date cooling degree days 646  
Since 1 June cooling degree days 580  
Growing Degree Days 24 (Base 50)    
Moisture  
Dew Point 66 °F    
Average Humidity 80    
Maximum Humidity 96    
Minimum Humidity 50    
Precipitation  
Precipitation 0.09 in 0.16 in 1.97 in (1951)
Month to date precipitation 4.01  
Year to date precipitation 25.64  
Snow  
Snow 0.00 in 0.00 in - ()
Month to date snowfall 0.0  
Since 1 July snowfall 0.0  
Snow Depth -    
Sea Level Pressure  
Sea Level Pressure 29.56 in    
Wind  
Wind Speed 5 mph (SW)    
Max Wind Speed 18 mph    
Max Gust Speed 26 mph    
Visibility 9 miles    
Events Rain , Thunderstorm    
T = Trace of Precipitation, MM = Missing Value Source: NWS Daily Summary

Daily Weather History Graph

Daily Weather History Graph

Search for Another Location

Airport or City:

Trip Planner

Search our weather history database for the weather conditions in past years. The results will help you decide how hot, cold, wet, or windy it might be!

Date:

Astronomy

Jul. 28, 2014 Rise Set
Actual Time 5:46 AM EDT 8:15 PM EDT
Civil Twilight 5:15 AM EDT 8:46 PM EDT
Nautical Twilight 4:36 AM EDT 9:25 PM EDT
Astronomical Twilight 3:52 AM EDT 10:08 PM EDT
Moon 7:27 AM EDT (7/28) 8:54 PM EDT (7/28)
Length of Visible Light 15h 31m
Length of Day
14h 28m
Waxing Crescent, 3% of the Moon is Illuminated
Jul 28
Waxing Crescent
Aug 3
First Quarter
Aug 10
Full
Aug 17
Last Quarter
Aug 25
New

Hourly Weather History & Observations

Time (EDT) Temp. Heat Index Dew Point Humidity Pressure Visibility Wind Dir Wind Speed Gust Speed Precip Events Conditions
12:45 AM 73.4 °F - 69.8 °F 88% 29.65 in 8.0 mi Calm Calm - 0.00 in Rain , Thunderstorm Light Thunderstorms and Rain
12:56 AM 73.0 °F - 71.1 °F 93% 29.63 in 6.0 mi Calm Calm - 0.01 in Rain , Thunderstorm Light Thunderstorms and Rain
1:56 AM 73.0 °F - 72.0 °F 96% 29.60 in 8.0 mi Calm Calm - 0.03 in Thunderstorm Thunderstorm
2:25 AM 73.4 °F - 71.6 °F 94% 29.59 in 7.0 mi ESE 3.5 mph - N/A   Mostly Cloudy
2:56 AM 73.0 °F - 71.1 °F 93% 29.55 in 6.0 mi ESE 4.6 mph - N/A   Mostly Cloudy
3:56 AM 73.0 °F - 71.1 °F 93% 29.56 in 4.0 mi South 8.1 mph - 0.00 in   Light Drizzle
4:01 AM 73.4 °F - 71.6 °F 94% 29.58 in 5.0 mi South 11.5 mph 17.3 mph 0.01 in Rain , Thunderstorm Light Thunderstorms and Rain
4:20 AM 71.6 °F - 69.8 °F 94% 29.56 in 10.0 mi South 8.1 mph 21.9 mph 0.01 in Rain Light Rain
4:56 AM 70.0 °F - 66.9 °F 90% 29.52 in 10.0 mi Calm Calm - 0.01 in   Mostly Cloudy
5:56 AM 68.0 °F - 66.0 °F 93% 29.53 in 10.0 mi SE 4.6 mph - N/A   Mostly Cloudy
6:56 AM 68.0 °F - 66.9 °F 96% 29.54 in 10.0 mi South 5.8 mph - N/A   Mostly Cloudy
7:24 AM 69.8 °F - 66.2 °F 88% 29.56 in 10.0 mi South 4.6 mph - N/A   Overcast
7:56 AM 69.1 °F - 66.9 °F 93% 29.54 in - South 8.1 mph - N/A   Overcast
8:05 AM 69.8 °F - 66.2 °F 88% 29.56 in 6.0 mi South 5.8 mph - N/A   Overcast
8:56 AM 71.1 °F - 68.0 °F 90% 29.55 in 6.0 mi Variable 5.8 mph - N/A   Mostly Cloudy
9:56 AM 72.0 °F - 66.9 °F 84% 29.54 in 10.0 mi Variable 4.6 mph - N/A   Mostly Cloudy
10:56 AM 73.0 °F - 66.9 °F 81% 29.53 in 10.0 mi West 4.6 mph - N/A   Overcast
11:56 AM 75.0 °F - 66.0 °F 73% 29.53 in 10.0 mi Variable 5.8 mph - N/A   Mostly Cloudy
12:56 PM 78.1 °F - 64.0 °F 62% 29.51 in 10.0 mi West 9.2 mph - N/A   Mostly Cloudy
1:56 PM 80.1 °F 81.7 °F 64.0 °F 58% 29.49 in 10.0 mi Variable 6.9 mph - N/A   Mostly Cloudy
2:56 PM 81.0 °F 81.7 °F 61.0 °F 50% 29.49 in 10.0 mi SW 9.2 mph 20.7 mph N/A   Mostly Cloudy
3:56 PM 81.0 °F 81.7 °F 61.0 °F 50% 29.50 in 10.0 mi West 10.4 mph 18.4 mph N/A   Scattered Clouds
4:56 PM 80.1 °F 80.9 °F 60.1 °F 50% 29.52 in 10.0 mi West 15.0 mph 21.9 mph N/A   Scattered Clouds
5:56 PM 79.0 °F - 59.0 °F 50% 29.53 in 10.0 mi West 12.7 mph 25.3 mph N/A   Scattered Clouds
6:56 PM 70.0 °F - 62.1 °F 76% 29.57 in 8.0 mi West 12.7 mph 26.5 mph 0.03 in Rain Light Rain
7:56 PM 68.0 °F - 62.1 °F 81% 29.58 in 10.0 mi West 9.2 mph - 0.01 in   Clear
8:56 PM 66.9 °F - 62.1 °F 84% 29.60 in 10.0 mi West 9.2 mph - N/A   Partly Cloudy
9:56 PM 68.0 °F - 61.0 °F 78% 29.64 in 10.0 mi WNW 10.4 mph - N/A   Partly Cloudy
10:56 PM 66.9 °F - 57.9 °F 73% 29.66 in 10.0 mi WNW 18.4 mph - N/A   Clear
11:56 PM 66.0 °F - 57.9 °F 75% 29.66 in 10.0 mi WNW 16.1 mph - N/A   Mostly Cloudy